Content
SEND FEEDBACK

Daily
Averages
Monthly
Summary
United States of America

INARAJAN, GUAM


Home > North America > United States > Guam
Elevation: 280 feet     Latitude: 13 18N     Longitude: 144 44E

WEATHER
 
SELECT A DAY
Number of Records: 351,709;   Date Range: 1/1/95 - 10/22/14
 
SHARE

PRINT THIS DATA

[ ← Previous Day ]
WEATHER ALMANAC - JANUARY 22, 2013
[ Next Day → ]
[ °C ]   °F
Weather ElementAverageHighLow
Temperature74.3 °F80.6 °F (1:42 pm)69.3 °F (7:55 pm)
Dewpoint68.7 °F73.4 °F (8:07 am)62.2 °F (3:55 pm)
Humidity82.9 %89 % (12:23 am)73 % (11:44 am)
Barometer29.89 in29.94 in (8:26 am)29.83 in (2:55 pm)
Wind Speed21.9 mph27.6 mph (12:57 pm)
Wind Gust33.4 mph (12:57 pm)
Weather ElementAverage
Visibility9.7 mi
Wind DirectionNE (49.8 °)

Weather ElementTotal
Precipitation0.04 in
Cooling Degree Days9.9 (Base 65)
Growing Degree Days25 (Base 50)
Averaged from 141 records on January 22, 2013
WEATHER CONDITIONS BREAKOUT
WIND DIRECTION BREAKOUT
WEATHER BY HOUR - JANUARY 22, 2013
[ °C ]   °F
Local TimeTemperatureDewpointHumidityBarometerVisibilityWind DirectionWind SpeedGust SpeedPrecipitationEventsConditions
12:23 AM75.2 °F71.6 °F89 %29.91 in5.0 miNE (50°)20.7 mphOvercast
12:31 AM75.2 °F71.6 °F89 %29.90 in10.0 miNE (50°)19.6 mphOvercast
12:36 AM75.2 °F71.6 °F89 %29.90 in10.0 miNE (50°)21.9 mphOvercast
12:53 AM75.2 °F69.8 °F83 %29.90 in10.0 miNE (40°)23.0 mph32.2 mphMostly Cloudy
12:55 AM75.6 °F70.3 °F84 %29.90 in10.0 miNE (40°)20.7 mph32.2 mph0.00 inMostly Cloudy
1:02 AM75.2 °F69.8 °F83 %29.90 in10.0 miNE (50°)20.7 mphMostly Cloudy
1:05 AM75.2 °F69.8 °F83 %29.90 in10.0 miNE (50°)21.9 mphMostly Cloudy
1:09 AM75.2 °F69.8 °F83 %29.90 in10.0 miENE (60°)25.3 mph28.8 mphMostly Cloudy
1:39 AM75.2 °F71.6 °F89 %29.89 in10.0 miNE (40°)20.7 mphMostly Cloudy
1:51 AM75.2 °F71.6 °F89 %29.88 in10.0 miNE (50°)19.6 mph26.5 mphMostly Cloudy
1:55 AM75.7 °F71.6 °F87 %29.88 in9.0 miENE (60°)23.0 mph29.9 mphMostly Cloudy
1:56 AM75.2 °F71.6 °F89 %29.88 in7.0 miENE (60°)26.5 mph31.1 mphRainLight Rain
2:13 AM75.2 °F71.6 °F89 %29.88 in8.0 miNE (50°)20.7 mph28.8 mphLight Drizzle
2:16 AM75.2 °F71.6 °F89 %29.88 in9.0 miNE (50°)17.3 mph28.8 mphOvercast
2:21 AM75.2 °F71.6 °F89 %29.88 in10.0 miNE (50°)20.7 mph28.8 mphMostly Cloudy
2:55 AM75.4 °F72.0 °F89 %29.87 in10.0 miNE (40°)20.7 mph28.8 mph0.02 inMostly Cloudy
2:58 AM75.2 °F71.6 °F89 %29.87 in10.0 miNE (40°)23.0 mph28.8 mphMostly Cloudy
3:13 AM75.2 °F71.6 °F89 %29.87 in10.0 miNE (40°)19.6 mph29.9 mphLight Drizzle
3:14 AM75.2 °F71.6 °F89 %29.87 in10.0 miNE (40°)19.6 mphLight Drizzle
3:18 AM75.2 °F71.6 °F89 %29.87 in10.0 miNE (40°)18.4 mphLight Drizzle
3:22 AM75.2 °F71.6 °F89 %29.86 in10.0 miNE (40°)21.9 mphMostly Cloudy
3:23 AM75.2 °F71.6 °F89 %29.86 in10.0 miNE (50°)24.2 mphMostly Cloudy
3:55 AM75.9 °F71.4 °F86 %29.86 in10.0 miNE (40°)21.9 mph27.6 mph0.00 inMostly Cloudy
4:11 AM77.0 °F71.6 °F83 %29.86 in10.0 miNE (40°)23.0 mphOvercast
4:13 AM77.0 °F71.6 °F83 %29.86 in10.0 miNE (40°)25.3 mphMostly Cloudy
4:14 AM77.0 °F71.6 °F83 %29.86 in10.0 miNE (50°)21.9 mphMostly Cloudy
4:20 AM75.2 °F71.6 °F89 %29.86 in10.0 miNE (50°)23.0 mphMostly Cloudy
4:26 AM75.2 °F71.6 °F89 %29.87 in10.0 miNE (50°)20.7 mphMostly Cloudy
4:33 AM77.0 °F71.6 °F83 %29.86 in10.0 miNE (50°)19.6 mphMostly Cloudy
4:55 AM76.1 °F71.4 °F85 %29.87 in10.0 miNE (50°)23.0 mphOvercast
4:57 AM75.2 °F71.6 °F89 %29.87 in10.0 miNE (50°)21.9 mphOvercast
5:00 AM75.2 °F71.6 °F89 %29.87 in10.0 miNE (40°)23.0 mphMostly Cloudy
5:22 AM75.2 °F71.6 °F89 %29.87 in10.0 miNE (40°)23.0 mphRainLight Rain
5:31 AM75.2 °F71.6 °F89 %29.88 in10.0 miNE (50°)25.3 mph29.9 mphOvercast
5:42 AM75.2 °F71.6 °F89 %29.88 in10.0 miNE (40°)21.9 mphMostly Cloudy
5:47 AM75.2 °F71.6 °F89 %29.88 in10.0 miNE (40°)19.6 mphOvercast
5:55 AM75.9 °F71.2 °F85 %29.88 in10.0 miNE (40°)20.7 mph0.00 inMostly Cloudy
5:57 AM75.2 °F71.6 °F89 %29.88 in10.0 miNE (50°)21.9 mphMostly Cloudy
5:58 AM75.2 °F71.6 °F89 %29.88 in10.0 miNE (50°)20.7 mphMostly Cloudy
6:28 AM77.0 °F71.6 °F83 %29.89 in10.0 miNE (40°)23.0 mphMostly Cloudy
6:30 AM77.0 °F71.6 °F83 %29.89 in10.0 miNE (40°)20.7 mphMostly Cloudy
6:32 AM75.2 °F71.6 °F89 %29.89 in10.0 miNE (40°)23.0 mphMostly Cloudy
6:48 AM75.2 °F71.6 °F89 %29.90 in10.0 miNE (40°)19.6 mph27.6 mphMostly Cloudy
6:52 AM75.2 °F71.6 °F89 %29.90 in10.0 miNE (40°)20.7 mph27.6 mphOvercast
6:53 AM75.2 °F71.6 °F89 %29.90 in10.0 miNE (40°)20.7 mph27.6 mphMostly Cloudy
6:55 AM75.9 °F72.0 °F87 %29.90 in10.0 miNE (40°)21.9 mph27.6 mphMostly Cloudy
7:04 AM77.0 °F71.6 °F83 %29.90 in10.0 miNE (40°)25.3 mphOvercast
7:07 AM77.0 °F71.6 °F83 %29.90 in10.0 miNE (40°)25.3 mphOvercast
7:19 AM77.0 °F71.6 °F83 %29.91 in10.0 miNE (50°)21.9 mphMostly Cloudy
7:20 AM77.0 °F71.6 °F83 %29.91 in10.0 miNE (50°)20.7 mphMostly Cloudy
7:21 AM77.0 °F71.6 °F83 %29.91 in10.0 miNE (50°)21.9 mphMostly Cloudy
7:23 AM77.0 °F71.6 °F83 %29.91 in10.0 miNE (50°)21.9 mphMostly Cloudy
7:31 AM77.0 °F71.6 °F83 %29.91 in10.0 miENE (60°)24.2 mph29.9 mphMostly Cloudy
7:32 AM77.0 °F71.6 °F83 %29.91 in10.0 miENE (60°)24.2 mph29.9 mphMostly Cloudy
7:34 AM77.0 °F71.6 °F83 %29.91 in6.0 miENE (60°)26.5 mph32.2 mphRainLight Rain
7:38 AM75.2 °F71.6 °F89 %29.92 in4.0 miNE (50°)24.2 mph32.2 mphRainLight Rain
7:44 AM75.2 °F71.6 °F89 %29.92 in7.0 miNE (50°)20.7 mphMostly Cloudy
7:47 AM75.2 °F71.6 °F89 %29.92 in10.0 miNE (40°)19.6 mph26.5 mphMostly Cloudy
7:55 AM76.5 °F72.7 °F88 %29.92 in10.0 miNE (50°)21.9 mph27.6 mph0.01 inMostly Cloudy
7:57 AM77.0 °F71.6 °F83 %29.92 in10.0 miNE (50°)25.3 mphMostly Cloudy
8:07 AM77.0 °F73.4 °F89 %29.93 in10.0 miNE (40°)24.2 mphRainLight Rain
8:12 AM77.0 °F73.4 °F89 %29.93 in5.0 miNE (50°)23.0 mphRainLight Rain
8:17 AM77.0 °F73.4 °F89 %29.93 in5.0 miNE (50°)23.0 mphRainLight Rain
8:19 AM77.0 °F73.4 °F89 %29.93 in7.0 miNE (50°)19.6 mphOvercast
8:21 AM77.0 °F73.4 °F89 %29.93 in10.0 miNE (50°)19.6 mphOvercast
8:26 AM77.0 °F73.4 °F89 %29.94 in10.0 miNE (40°)20.7 mph27.6 mphOvercast
8:27 AM77.0 °F73.4 °F89 %29.93 in10.0 miNE (40°)23.0 mph28.8 mphOvercast
8:30 AM77.0 °F73.4 °F89 %29.94 in10.0 miNE (50°)24.2 mph29.9 mphOvercast
8:31 AM77.0 °F71.6 °F83 %29.94 in10.0 miNE (40°)23.0 mph29.9 mphOvercast
8:32 AM77.0 °F71.6 °F83 %29.94 in10.0 miNE (50°)21.9 mph29.9 mphMostly Cloudy
8:35 AM77.0 °F71.6 °F83 %29.94 in10.0 miNE (40°)20.7 mph29.9 mphMostly Cloudy
8:36 AM77.0 °F73.4 °F89 %29.94 in10.0 miNE (40°)21.9 mph29.9 mphMostly Cloudy
8:41 AM77.0 °F73.4 °F89 %29.94 in10.0 miNE (50°)21.9 mphMostly Cloudy
8:55 AM78.3 °F73.0 °F84 %29.94 in10.0 miNE (50°)23.0 mph0.00 inMostly Cloudy
9:04 AM78.8 °F73.4 °F83 %29.94 in10.0 miNE (50°)19.6 mphOvercast
9:16 AM78.8 °F73.4 °F83 %29.94 in10.0 miNE (40°)24.2 mphMostly Cloudy
9:20 AM78.8 °F73.4 °F83 %29.94 in10.0 miNE (40°)23.0 mphOvercast
9:33 AM77.0 °F71.6 °F83 %29.94 in10.0 miNE (50°)23.0 mphMostly Cloudy
9:40 AM77.0 °F73.4 °F89 %29.94 in10.0 miNE (50°)23.0 mphScattered Clouds
9:55 AM77.4 °F73.0 °F86 %29.94 in10.0 miNE (40°)19.6 mph26.5 mphMostly Cloudy
10:01 AM77.0 °F73.4 °F89 %29.93 in10.0 miNE (40°)18.4 mphMostly Cloudy
11:44 AM75.2 °F66.2 °F73 %29.91 in10.0 miNE (50°)24.2 mph28.8 mphOvercast
11:48 AM75.2 °F68.0 °F78 %29.91 in10.0 miNE (50°)23.0 mph29.9 mphOvercast
11:55 AM73.4 °F65.8 °F77 %29.91 in10.0 miNE (50°)20.7 mph29.9 mphOvercast
12:17 PM73.4 °F66.2 °F78 %29.90 in10.0 miNE (50°)21.9 mph27.6 mphOvercast
12:18 PM73.4 °F66.2 °F78 %29.90 in10.0 miNE (50°)21.9 mph28.8 mphMostly Cloudy
12:19 PM73.4 °F64.4 °F73 %29.90 in10.0 miNE (50°)23.0 mph28.8 mphMostly Cloudy
12:20 PM73.4 °F64.4 °F73 %29.90 in10.0 miNE (50°)21.9 mph28.8 mphMostly Cloudy
12:29 PM73.4 °F64.4 °F73 %29.90 in10.0 miNE (50°)20.7 mph31.1 mphMostly Cloudy
12:55 PM75.0 °F66.4 °F74 %29.88 in10.0 miNE (50°)24.2 mph31.1 mphMostly Cloudy
12:57 PM75.2 °F66.2 °F73 %29.88 in10.0 miNE (50°)27.6 mph33.4 mphMostly Cloudy
12:58 PM73.4 °F66.2 °F78 %29.88 in9.0 miENE (60°)27.6 mph33.4 mphRainLight Rain
12:59 PM73.4 °F66.2 °F78 %29.88 in7.0 miENE (60°)25.3 mph33.4 mphRainLight Rain
1:22 PM69.8 °F66.2 °F88 %29.87 in7.0 miNE (50°)24.2 mph27.6 mphLight Drizzle
1:27 PM69.8 °F66.2 °F88 %29.87 in8.0 miNE (50°)23.0 mph27.6 mphMostly Cloudy
1:42 PM80.6 °F71.6 °F74 %29.90 in10.0 miNE (50°)20.7 mphScattered Clouds
1:55 PM76.8 °F69.1 °F77 %29.86 in10.0 miNE (50°)19.6 mph26.5 mph0.01 inMostly Cloudy
1:57 PM80.6 °F71.6 °F74 %29.90 in10.0 miNE (50°)23.0 mph26.5 mphMostly Cloudy
2:15 PM80.6 °F71.6 °F74 %29.84 in10.0 miNE (50°)23.0 mph29.9 mphMostly Cloudy
2:55 PM71.1 °F63.7 °F77 %29.83 in10.0 miNE (50°)20.7 mphMostly Cloudy
2:56 PM71.6 °F64.4 °F78 %29.83 in10.0 miNE (50°)20.7 mphMostly Cloudy
2:58 PM71.6 °F64.4 °F78 %29.83 in10.0 miNE (50°)20.7 mph27.6 mphMostly Cloudy
3:55 PM70.5 °F62.2 °F75 %29.83 in10.0 miNE (50°)24.2 mph29.9 mphMostly Cloudy
4:08 PM69.8 °F62.6 °F78 %29.83 in10.0 miNE (50°)20.7 mphMostly Cloudy
4:11 PM69.8 °F62.6 °F78 %29.83 in10.0 miNE (50°)23.0 mphMostly Cloudy
4:55 PM73.0 °F64.6 °F75 %29.84 in10.0 miNE (50°)21.9 mph32.2 mphMostly Cloudy
5:36 PM69.8 °F62.6 °F78 %29.84 in10.0 miNE (50°)18.4 mph26.5 mphScattered Clouds
5:50 PM69.8 °F62.6 °F78 %29.84 in10.0 miNE (50°)20.7 mphMostly Cloudy
5:55 PM69.4 °F62.6 °F79 %29.84 in10.0 miNE (50°)21.9 mph27.6 mphMostly Cloudy
6:03 PM69.8 °F62.6 °F78 %29.84 in10.0 miNE (50°)20.7 mph28.8 mphMostly Cloudy
6:04 PM69.8 °F62.6 °F78 %29.84 in10.0 miNE (50°)23.0 mph28.8 mphMostly Cloudy
6:10 PM69.8 °F62.6 °F78 %29.84 in10.0 miNE (50°)23.0 mph31.1 mphMostly Cloudy
6:36 PM69.8 °F62.6 °F78 %29.85 in10.0 miNE (50°)24.2 mphMostly Cloudy
6:55 PM71.4 °F64.6 °F79 %29.85 in10.0 miNE (50°)21.9 mphOvercast
7:50 PM69.8 °F62.6 °F78 %29.86 in10.0 miENE (60°)19.6 mphMostly Cloudy
7:54 PM69.8 °F62.6 °F78 %29.86 in10.0 miENE (60°)20.7 mph27.6 mphMostly Cloudy
7:55 PM69.3 °F62.8 °F80 %29.86 in10.0 miENE (60°)23.0 mph29.9 mphMostly Cloudy
8:12 PM69.8 °F62.6 °F78 %29.86 in10.0 miENE (60°)24.2 mphMostly Cloudy
8:15 PM69.8 °F62.6 °F78 %29.86 in10.0 miNE (50°)20.7 mphMostly Cloudy
8:16 PM69.8 °F62.6 °F78 %29.86 in10.0 miENE (60°)21.9 mphMostly Cloudy
8:21 PM69.8 °F62.6 °F78 %29.86 in10.0 miENE (60°)23.0 mph29.9 mphMostly Cloudy
8:25 PM71.6 °F64.4 °F78 %29.86 in10.0 miENE (60°)20.7 mph29.9 mphMostly Cloudy
8:29 PM69.8 °F64.4 °F83 %29.86 in10.0 miNE (50°)23.0 mph29.9 mphMostly Cloudy
8:55 PM72.1 °F65.1 °F78 %29.87 in10.0 miENE (60°)20.7 mph27.6 mphMostly Cloudy
9:16 PM69.8 °F62.6 °F78 %29.87 in10.0 miENE (60°)23.0 mphOvercast
9:17 PM69.8 °F62.6 °F78 %29.87 in10.0 miENE (60°)23.0 mphOvercast
9:55 PM69.8 °F63.0 °F79 %29.87 in10.0 miENE (60°)23.0 mph27.6 mphMostly Cloudy
10:01 PM69.8 °F62.6 °F78 %29.87 in10.0 miENE (60°)21.9 mph27.6 mphMostly Cloudy
10:02 PM69.8 °F62.6 °F78 %29.87 in10.0 miENE (60°)23.0 mph27.6 mphMostly Cloudy
10:07 PM69.8 °F62.6 °F78 %29.87 in10.0 miENE (60°)23.0 mph27.6 mphMostly Cloudy
10:09 PM69.8 °F62.6 °F78 %29.87 in10.0 miENE (60°)19.6 mphMostly Cloudy
10:15 PM71.6 °F66.2 °F83 %29.87 in10.0 miENE (60°)19.6 mphMostly Cloudy
10:18 PM71.6 °F64.4 °F78 %29.87 in10.0 miENE (60°)23.0 mph27.6 mphMostly Cloudy
10:19 PM71.6 °F64.4 °F78 %29.87 in10.0 miENE (60°)20.7 mph27.6 mphMostly Cloudy
10:55 PM69.6 °F63.0 °F79 %29.87 in10.0 miENE (60°)18.4 mphMostly Cloudy
11:05 PM69.8 °F62.6 °F78 %29.87 in10.0 miENE (60°)18.4 mphOvercast
11:06 PM69.8 °F62.6 °F78 %29.87 in10.0 miENE (60°)17.3 mphOvercast
11:08 PM69.8 °F62.6 °F78 %29.87 in10.0 miENE (60°)16.1 mphOvercast
11:15 PM69.8 °F62.6 °F78 %29.87 in10.0 miENE (70°)16.1 mphOvercast
11:52 PM71.6 °F64.4 °F78 %29.87 in10.0 miENE (60°)18.4 mphOvercast
11:55 PM71.2 °F64.6 °F79 %29.87 in10.0 miENE (60°)19.6 mphOvercast
Hourly data recorded from PGUA, located miles away from Inarajan, Guam







STORIES FROM OUR PARTNERS